This is the latest recevied weather packets stored in our database for station/object KI5NYZ-13. If no packets are shown the sender has not sent any weather packets the latest 10 day(s).
| Time | Temp. | Humidity | Pressure | Rain* | Wind** | Luminosity | Snow |
|---|---|---|---|---|---|---|---|
| 1777637155 | 10° C | 96% | 1015.6 hPa | 0.25 mm | - | - | - |
| 1777635354 | 10° C | 95% | 1015.2 hPa | 0 mm | - | - | - |
| 1777633553 | 10° C | 96% | 1015.2 hPa | 0 mm | - | - | - |
| 1777631752 | 10° C | 94% | 1015.4 hPa | 0 mm | - | - | - |
| 1777629951 | 10.56° C | 94% | 1015.1 hPa | 0 mm | - | - | - |
| 1777628150 | 10.56° C | 92% | 1015.2 hPa | 0 mm | - | - | - |
| 1777626349 | 10.56° C | 92% | 1015.1 hPa | 0 mm | - | - | - |
| 1777624548 | 11.11° C | 87% | 1015.1 hPa | 0 mm | - | - | - |
| 1777622747 | 11.67° C | 88% | 1015.2 hPa | 0 mm | - | - | - |
| 1777620946 | 11.67° C | 87% | 1015 hPa | 0 mm | - | - | - |
| 1777619146 | 11.67° C | 88% | 1015.8 hPa | 0 mm | - | - | - |
| 1777617344 | 11.67° C | 89% | 1016.1 hPa | 0 mm | - | - | - |
| 1777613749 | 12.22° C | 90% | 1015.6 hPa | 0 mm | - | - | - |
| 1777611949 | 12.22° C | 90% | 1015.3 hPa | 0 mm | - | - | - |
| 1777610147 | 12.22° C | 90% | 1015.9 hPa | 0 mm | - | - | - |
| 1777608346 | 12.22° C | 89% | 1015.8 hPa | 0 mm | - | - | - |
| 1777606545 | 12.22° C | 88% | 1015.6 hPa | 0 mm | - | - | - |
| 1777604744 | 12.22° C | 88% | 1015 hPa | 0 mm | - | - | - |
| 1777602943 | 12.22° C | 88% | 1014.8 hPa | 0 mm | - | - | - |
| 1777601142 | 12.22° C | 89% | 1014.2 hPa | 0 mm | - | - | - |
| 1777597705 | 12.78° C | 86% | 1013.3 hPa | 0 mm | - | - | - |
| 1777595904 | 13.33° C | 85% | 1012.8 hPa | 0 mm | - | - | - |
| 1777594103 | 13.33° C | 86% | 1012.9 hPa | 0 mm | - | - | - |
| 1777592302 | 13.33° C | 83% | 1012 hPa | 0 mm | - | - | - |
| 1777590501 | 13.89° C | 80% | 1012.1 hPa | 0 mm | - | - | - |
* Rain latest hour (hover to see other rain measurements)
** Current wind speed in m/s (hover to see current wind gust speed)